FIN315 EFHK-EFOU

Flight info

Callsign FIN315
Flight time N/A
Altitude 30000
Route TEVRU Y75 SUVIB
Aircraft A319/M-SDE3FGHIRWY/LB1

Departure

Time 2026-04-26 14:51
Airport Helsinki Vantaa Airport (EFHK)

Arrival

Time N/A
Airport Oulu Airport (EFOU)
Time Latitude Longitude Altitude Speed Heading
2026-04-26 14:32 60.31671 24.97203 167 ft 0 kts 243°
2026-04-26 14:41 60.31675 24.97220 166 ft 4 kts 243°
2026-04-26 14:41 60.31688 24.97269 166 ft 4 kts 239°
2026-04-26 14:41 60.31703 24.97306 166 ft 4 kts 195°
2026-04-26 14:42 60.31712 24.97308 166 ft 0 kts 153°
2026-04-26 14:44 60.31701 24.97320 166 ft 5 kts 152°
2026-04-26 14:44 60.31650 24.97378 166 ft 13 kts 145°
2026-04-26 14:44 60.31594 24.97587 156 ft 22 kts 152°
2026-04-26 14:44 60.31429 24.97755 156 ft 29 kts 153°
2026-04-26 14:45 60.31255 24.97936 158 ft 27 kts 153°
2026-04-26 14:45 60.31143 24.98051 159 ft 28 kts 153°
2026-04-26 14:45 60.30882 24.98290 159 ft 33 kts 156°
2026-04-26 14:45 60.30689 24.98462 158 ft 23 kts 153°
2026-04-26 14:46 60.30616 24.98646 157 ft 14 kts 62°
2026-04-26 14:46 60.30638 24.98667 157 ft 2 kts 350°
2026-04-26 14:46 60.30642 24.98669 157 ft 0 kts
2026-04-26 14:47 60.30643 24.98669 157 ft 0 kts
2026-04-26 14:50 60.30644 24.98669 157 ft 1 kts
2026-04-26 14:50 60.30684 24.98702 157 ft 18 kts 28°
2026-04-26 14:50 60.30900 24.98632 155 ft 60 kts 333°
2026-04-26 14:51 60.31479 24.98026 160 ft 124 kts 333°
2026-04-26 14:51 60.32289 24.97214 643 ft 133 kts 333°
2026-04-26 14:51 60.33180 24.96316 1133 ft 152 kts 336°
2026-04-26 14:51 60.34183 24.95293 1597 ft 173 kts 334°
2026-04-26 14:52 60.35338 24.94104 2062 ft 200 kts 334°
2026-04-26 14:52 60.36666 24.92732 2507 ft 229 kts 334°
2026-04-26 14:52 60.38178 24.91171 2966 ft 259 kts 334°
2026-04-26 14:52 60.39858 24.89436 3523 ft 281 kts 334°
2026-04-26 14:53 60.41631 24.87621 4422 ft 288 kts 336°
2026-04-26 14:53 60.43557 24.86438 5409 ft 292 kts 350°
2026-04-26 14:53 60.45600 24.86332 6406 ft 296 kts
2026-04-26 14:53 60.47679 24.86451 7334 ft 301 kts 360°
2026-04-26 14:54 60.49791 24.86565 8225 ft 307 kts 359°
2026-04-26 14:54 60.51951 24.86680 9101 ft 314 kts
2026-04-26 14:54 60.54154 24.86799 9992 ft 318 kts 360°
2026-04-26 14:54 60.56385 24.86922 10827 ft 323 kts
2026-04-26 14:55 60.58638 24.87054 11686 ft 327 kts
2026-04-26 14:55 60.60929 24.87188 12459 ft 332 kts
2026-04-26 14:55 60.63263 24.87323 13213 ft 338 kts
2026-04-26 14:55 60.65627 24.87465 13997 ft 342 kts
2026-04-26 14:56 60.68011 24.87606 14734 ft 345 kts
2026-04-26 14:56 60.70430 24.87744 15417 ft 350 kts
2026-04-26 14:56 60.72889 24.87887 16020 ft 358 kts 360°
2026-04-26 14:56 60.75384 24.88032 16738 ft 361 kts
2026-04-26 14:57 60.77895 24.88201 17543 ft 362 kts
2026-04-26 14:57 60.80446 24.88416 18103 ft 369 kts
2026-04-26 14:57 60.83013 24.88628 18554 ft 378 kts
2026-04-26 14:57 60.85656 24.88828 19105 ft 382 kts
2026-04-26 14:58 60.88310 24.89012 19776 ft 382 kts
2026-04-26 14:58 60.90990 24.89180 20303 ft 386 kts
2026-04-26 14:58 60.93699 24.89340 20812 ft 391 kts 359°
2026-04-26 14:58 60.96425 24.89498 21403 ft 392 kts 360°
2026-04-26 14:59 60.99162 24.89656 22003 ft 394 kts
2026-04-26 14:59 61.01891 24.89818 22880 ft 385 kts
2026-04-26 14:59 61.04510 24.89979 24045 ft 371 kts
2026-04-26 14:59 61.06210 24.90082 24514 ft 369 kts
2026-04-26 15:00 61.09642 24.90291 25239 ft 370 kts 360°
2026-04-26 15:00 61.12219 24.90448 25713 ft 372 kts 360°
2026-04-26 15:00 61.14817 24.90604 26141 ft 376 kts 360°
2026-04-26 15:00 61.17450 24.90756 26523 ft 380 kts 360°
2026-04-26 15:01 61.20108 24.90912 26933 ft 383 kts 360°
2026-04-26 15:01 61.22780 24.91076 27375 ft 386 kts 360°
2026-04-26 15:01 61.25474 24.91243 27806 ft 388 kts 360°
2026-04-26 15:01 61.28146 24.91414 28228 ft 391 kts 360°
2026-04-26 15:02 61.30875 24.91584 28645 ft 393 kts 360°
2026-04-26 15:02 61.33615 24.91747 29051 ft 395 kts 360°
2026-04-26 15:02 61.36373 24.91911 29448 ft 398 kts 360°
2026-04-26 15:02 61.39149 24.92077 29766 ft 400 kts 360°
2026-04-26 15:03 61.41932 24.92288 29814 ft 402 kts
2026-04-26 15:03 61.47651 24.93312 29819 ft 423 kts
2026-04-26 15:04 61.53616 24.94720 29817 ft 438 kts
2026-04-26 15:04 61.59715 24.96108 29833 ft 441 kts
2026-04-26 15:05 61.65831 24.97364 29810 ft 441 kts
2026-04-26 15:05 61.71946 24.98592 29812 ft 441 kts
2026-04-26 15:06 61.77025 24.99650 29832 ft 442 kts
2026-04-26 15:06 61.83160 25.00960 29813 ft 442 kts
2026-04-26 15:07 61.92319 25.02888 29823 ft 440 kts
2026-04-26 15:07 61.98414 25.04168 29818 ft 440 kts
2026-04-26 15:08 62.04474 25.05459 29829 ft 443 kts
2026-04-26 15:08 62.10644 25.06780 29820 ft 448 kts
2026-04-26 15:09 62.16879 25.08119 29835 ft 451 kts
2026-04-26 15:09 62.23122 25.09459 29829 ft 451 kts
2026-04-26 15:10 62.28360 25.10589 29832 ft 451 kts
2026-04-26 15:10 62.35618 25.12176 29832 ft 451 kts
2026-04-26 15:11 62.41865 25.13532 29832 ft 451 kts
2026-04-26 15:11 62.48120 25.14903 29829 ft 451 kts
2026-04-26 15:12 62.54365 25.16288 29838 ft 451 kts
2026-04-26 15:12 62.60610 25.17679 29838 ft 451 kts
2026-04-26 15:13 62.66856 25.19082 29811 ft 451 kts
2026-04-26 15:13 62.73067 25.20455 29839 ft 448 kts
2026-04-26 15:14 62.79281 25.21821 29838 ft 449 kts
2026-04-26 15:14 62.85477 25.23215 29847 ft 445 kts
2026-04-26 15:15 62.91625 25.24610 29846 ft 444 kts
2026-04-26 15:15 62.97766 25.25991 29843 ft 443 kts
2026-04-26 15:16 63.03862 25.27381 29864 ft 443 kts
2026-04-26 15:16 63.10027 25.28805 29844 ft 446 kts
2026-04-26 15:17 63.15202 25.29994 29836 ft 443 kts
2026-04-26 15:17 63.19235 25.30916 29505 ft 438 kts
2026-04-26 15:17 63.22263 25.31608 28880 ft 436 kts
2026-04-26 15:18 63.25279 25.32304 28254 ft 436 kts
2026-04-26 15:18 63.28300 25.33005 27646 ft 437 kts
2026-04-26 15:18 63.31329 25.33712 27048 ft 438 kts
2026-04-26 15:18 63.34361 25.34421 26465 ft 439 kts
2026-04-26 15:19 63.37400 25.35133 25906 ft 440 kts
2026-04-26 15:19 63.40454 25.35852 25349 ft 442 kts
2026-04-26 15:19 63.43516 25.36573 24798 ft 443 kts
2026-04-26 15:19 63.46597 25.37298 24253 ft 445 kts
2026-04-26 15:20 63.49683 25.38022 23709 ft 445 kts
2026-04-26 15:20 63.52724 25.38733 23135 ft 443 kts
2026-04-26 15:20 63.55745 25.39436 22482 ft 430 kts
2026-04-26 15:20 63.58682 25.40131 21858 ft 419 kts
2026-04-26 15:21 63.61558 25.40822 21250 ft 413 kts
2026-04-26 15:21 63.64394 25.41507 20651 ft 408 kts
2026-04-26 15:21 63.67208 25.42183 20063 ft 404 kts
2026-04-26 15:21 63.69996 25.42848 19497 ft 402 kts
2026-04-26 15:22 63.72764 25.43507 18922 ft 399 kts
2026-04-26 15:22 63.75499 25.44152 18443 ft 390 kts
2026-04-26 15:22 63.78164 25.44784 18010 ft 381 kts
2026-04-26 15:22 63.80771 25.45401 17517 ft 373 kts
2026-04-26 15:23 63.83332 25.46009 17040 ft 367 kts
2026-04-26 15:23 63.85850 25.46608 16564 ft 361 kts
2026-04-26 15:23 63.88331 25.47202 16082 ft 356 kts
2026-04-26 15:23 63.90776 25.47795 15622 ft 350 kts
2026-04-26 15:24 63.93179 25.48385 15159 ft 346 kts
2026-04-26 15:24 63.95562 25.48974 14704 ft 343 kts
2026-04-26 15:24 63.97917 25.49552 14256 ft 339 kts
2026-04-26 15:24 64.00248 25.50115 13813 ft 336 kts
2026-04-26 15:25 64.02571 25.50675 13331 ft 334 kts
2026-04-26 15:25 64.03975 25.51016 13038 ft 334 kts